Regional Weather Roundup
Issued by NWS Upton, NY

Current Version | Previous Version | Text Only | Print | Product List | Glossary On
Versions: 1 2 3 4 5 6 7 8 9 10 11 12 13 14 15 16 17 18 19 20 21 22 23 24 25 26 27 28 29 30 31 32 33 34 35 36 37 38 39 40 41 42 43 44 45 46 47 48 49 50
000 ASUS41 KOKX 192305 RWROKX REGIONAL WEATHER ROUNDUP NATIONAL WEATHER SERVICE NEW YORK NY 700 PM EDT FRI SEP 19 2014 NOTE: "FAIR" INDICATES FEW OR NO CLOUDS BELOW 12,000 FEET WITH NO SIGNIFICANT WEATHER AND/OR OBSTRUCTIONS TO VISIBILITY. NYZ071-072-176-178-NJZ106-104-200000- NEW YORK CITY METRO AREA CITY SKY/WX TMP DP RH WIND PRES REMARKS CENTRAL PARK CLOUDY 62 47 57 VRB5 30.37R LAGUARDIA APRT MOCLDY 63 47 55 SE12 30.34R KENNEDY INTL PTCLDY 61 47 59 E13 30.36R NEWARK/LIBERTY PTCLDY 62 49 62 SE10 30.34S BRNX BOT. GARD N/A 59 45 58 S6 30.36R TETERBORO MOCLDY 64 44 48 SE8 30.33S $$ NYZ177-179-078>081-200000- LONG ISLAND NEW YORK CITY SKY/WX TMP DP RH WIND PRES REMARKS FARMINGDALE CLEAR 59 46 62 SE8 30.36R ISLIP PTCLDY 58 44 60 E7 30.35R SHIRLEY CLEAR 57 43 59 SE3 30.37R WESTHAMPTON CLEAR 57 42 57 MISG 30.38S MONTAUK POINT N/A 55 42 61 E5 30.39R $$ NYZ052-065-067-200000- HUDSON VALLEY CITY SKY/WX TMP DP RH WIND PRES REMARKS WHITE PLAINS PTCLDY 57 43 59 CALM 30.35R NEWBURGH PTCLDY 61 46 59 VRB6 30.34R MONTGOMERY MOCLDY 59 44 57 SE7 30.32R POUGHKEEPSIE CLEAR 59 45 59 CALM 30.32S ALBANY PTCLDY 57 41 55 CALM 30.32S $$ NJZ001-105-106-008-010-013-015-019>022-104-200000- NEW JERSEY CITY SKY/WX TMP DP RH WIND PRES REMARKS NEWARK/LIBERTY PTCLDY 62 49 62 SE10 30.34S TETERBORO MOCLDY 64 44 48 SE8 30.33S CALDWELL PTCLDY 62 47 57 S12 30.34R MORRISTOWN CLEAR 61 50 67 S7 30.34R SOMERVILLE CLEAR 61 48 62 SE6 30.32R LINDEN FAIR 66 51 58 S7 30.36S SUSSEX MOCLDY 62 46 55 SE3 30.32R ANDOVER N/A 59 48 67 VRB3 30.33R TRENTON CLEAR 60 50 69 SE7 30.33R MILLVILLE CLEAR 63 55 75 E10 30.31S ATLANTIC CITY PTCLDY 62 56 80 E8 30.31F WRIGHTSTOWN PTCLDY 59 53 80 E6 30.31S TOMS RIVER CLOUDY 61 54 77 CALM 30.34S BELMAR CLOUDY 61 48 63 E8 30.34S $$ PAZ047>061-062-071-200000- EASTERN PENNSYLVANIA CITY SKY/WX TMP DP RH WIND PRES REMARKS PHILADELPHIA PTCLDY 64 53 67 E13 30.32S ALLENTOWN MOCLDY 64 49 57 SE7 30.30R SCRANTON CLEAR 62 48 60 S6 30.28R $$ CTZ002-004>006-009-010-012-RIZ004-006-007-MAZ004-011-015-200000- SOUTHERN NEW ENGLAND IN CT CITY SKY/WX TMP DP RH WIND PRES REMARKS BRADLEY INTL CLEAR 57 39 51 N3 30.35R HARTFORD CLEAR 58 39 49 SE9 30.36R DANBURY CLEAR 56 43 61 S7 30.36R WTRBRY/OXFORD CLEAR 54 39 58 S6 30.36R BRIDGEPORT CLEAR 60 43 53 E7 30.36R MERIDEN CLEAR 58 41 53 S5 30.36R NEW HAVEN CLEAR 60 42 51 E6 30.37R CHESTER FAIR 55 43 62 SE3 30.37S GROTON CLEAR 56 42 59 E10 30.37S WILLIMANTIC CLEAR 57 36 45 CALM 30.37S IN RI CITY SKY/WX TMP DP RH WIND PRES REMARKS PROVIDENCE PTCLDY 54 36 50 E8 30.40S BLOCK ISLAND CLEAR 55 39 54 E8 30.38S WESTERLY CLEAR 55 40 56 E6 30.39R IN MA CITY SKY/WX TMP DP RH WIND PRES REMARKS BOSTON PTCLDY 51 32 48 E7 30.42R WORCESTER CLEAR 51 32 48 E7 30.38R WESTFIELD CLEAR 56 36 47 CALM 30.36S PROVINCETOWN CLEAR 48 34 57 E3 30.42R NANTUCKET CLEAR 50 37 61 E5 30.39R $$ ANZ330-335-338-340-345-350-353-355-200000- COASTAL MARINE OBSERVATIONS STATION/POSITION TIME SKY/WX TEMP WIND PRES VSBY WAVE AIR SEA DIR/SP/G HT/PER (UTC) (F) (DEG/KT/KT) (MB) (MI) (FT/S) NY HARB ENTRANCE 2300 62 70 110/ 14/ 17 1027.7 3/ 6 4S FIRE IS 2300 70 N/A 4/ 6 20S FIRE ISLAND 2300 60 67 80/ 16/ 17 1027.9 5/ 6 23SW MTP 2300 N/A 4/ 6 HUDSON CANYON 2300 64 72 70/ 16/ 19 1026.4 5/ 6 EXECUTION ROCKS 2300 63 70 80/ 10/ 14 N/A WESTERN LI SOUND 2300 62 100/ 6/ 10 N/A 1/ 4 CENTRAL LI SOUND 2200 60 70 140/ 10/ 14 N/A 1/ 2 EASTERN LI SOUND 2200 61 68 110/ 12/ 16 N/A ROBBINS REEF 2300 61 120/ 13/ 17 1026.2 $$ >>>>>>>>>>>>>>>>>>>>>>>>>>>> KEY <<<<<<<<<<<<<<<<<<<<<<<<<<< > < > SKY/WX - SKY CONDITION/PRESENT WEATHER < > TMP - TEMPERATURE IN FAHRENHEIT < > DP - DEWPOINT IN FAHRENHEIT < > RH - RELATIVE HUMIDITY IN PERCENT < > WIND - DIRECTION AND SPEED IN MPH < > PRES - MEAN SEA LEVEL PRESSURE IN INCHES OF HG < > WCI - WIND CHILL INDEX < > VSB - VISIBILITY IN MILES < > HX - HEAT INDEX < > TC - TEMPERATURE IN CELSIUS < > VRB - VARIABLE WIND DIRECTION < > < >>>>>>>>>>>>>>>>>>>>>>>>>>>> KEY <<<<<<<<<<<<<<<<<<<<<<<<<<<

USA.gov is the U.S. government's official web portal to all federal, state and local government web resources and services.